CZ-6A DEB, 61826

Orbit data source: Space-Track

CZ-6A DEB, 61826 is space debris in LEO originally from a launch on Tue, 06 Aug 2024 UTC launched from the Taiyaun Space Center, China (TSC). Debris objects in space refer to the collection of defunct objects orbiting the Earth. Examples of debris include non-operational satellites, rocket bodies, and fragments generated from explosions, collisions, or faulty payload assembly.

Loading next visibility...
Identifier
61826, 2024-140ACS
Orbit
LEO
Country
Flag of CNCN / PRC
Related business
Manufacturer
SAST
Mission
Spacecraft
Bus & Motor
Unknown
Mass
Unknown
Launch date (UTC)
2024-08-06 (1 year ago)
Launch vehicle
Unknown
Launch site
Taiyaun Space Center, China (TSC)
Object type
Payload
Rocket body
Debris
Shape & HBR
Unknown shape, 0.1 m
Radar Cross Section
Small (<0.1 m²)

Expand to show TLE details & history
Last TLE update: 8 hours ago

TLE from 8 hours ago
0 CZ-6A DEB
1 61826U 24140ACS 25349.80972905  .00001660  00000-0  65310-3 0  9998
2 61826  89.0454 297.3269 0018203 349.4258  10.6551 14.28745412 65728
Epoch: 2025-12-15T19:26Z
TLE epoch observation values (Epoch: 2025-12-15T19:26:00.589Z)
Latitude
-0.0001°
Longitude
-78.87852°
Altitude
786.158 km
Speed
7.467 km/s
True Right ascension
19h 49m 18s
True Declination
0° 00' 00"
Sunlit
Object was in daylight at epoch
Visualization orbit readout
Latitude
Unknown
Longitude
Unknown
Altitude
Unknown
Speed
Unknown
Apparent Right ascension
Unknown
Apparent Declination
Unknown
Sunlit
N/A
Visualization observer readout
Local Sidereal Time
02:28:01
Azimuth
Unknown
Elevation
Unknown
Doppler factor
Unknown
Orbital elements
Apogee altitude
805.919 km
Perigee altitude
779.813 km
Semi-major axis
7,171.003 km
Eccentricity
0.00182
Inclination
89.0454°
RAAN
297.3269°
Arg. of periapsis
349.4258°
True anomaly
10.69375°
Mean anomaly
10.6551°
Eccentric anomaly
10.67442°
Mean motion
3.57415 °/min
Orbital period
100.72 mins
BSTAR
0.0006531
Loading maneuver chart data...
Computing Atmospheric mass density...
Loading historical data...
Loading historical data...
Loading historical data...
Loading historical data...
Loading historical data...
Loading historical data...
Loading historical data...

Documentation

Showing up to 5 results
|